Welcome to Northern Hawkes Bay. New Zealand.
PWS Header
      nz Flag



Hit Counter


W3C Valid W3C Valid logo


    Wairoa

Select any of the Stations below to visit their websites.










Historic Data from Weather Underground
Select the location of interest below. Wairoa is the default. Please have patience, this Data is slow to load in.
Northern Hawkes Bay Historical Data
Daily Summary for September 3, 2017 Units:  Metric    English   Both
« Previous Day
Next Day »
Daily Weekly Monthly Yearly Custom
  High: Low: Average:
Temperature: 11.3 °C 10.3 °C 10.8 °C
Dew Point: 10.9 °C 8.7 °C 9.9 °C
Humidity: 99% 86% 94%
Wind Speed: 35.6km/h 6.1km/h 18.7km/h
Wind Gust: 45.4km/h - -
Wind- - SSW
Pressure: 1008.4 hPa 1003.3 hPa -
Precipitation: 35.8 mm    
Historical Graphs
 
 
Tabular Data for September 3, 2017
Time Temperature Dew Point Pressure Wind Wind Speed Wind Gust Humidity Rainfall Rate (Hourly) solar
00:01 11.1 °C 10.7 °C 1003.6 hPa South 18.3 km/h 35.6 km/h 97% 4.8 mm 0 W/m2
00:06 11.1 °C 10.7 °C 1003.6 hPa SSE 12.2 km/h 31.7 km/h 97% 5.6 mm 0 W/m2
00:11 11.0 °C 10.7 °C 1003.6 hPa SSE 9.7 km/h 21.9 km/h 98% 6.1 mm 0 W/m2
00:16 10.9 °C 10.8 °C 1003.6 hPa SSE 12.2 km/h 27.0 km/h 99% 6.3 mm 0 W/m2
00:21 11.0 °C 10.7 °C 1003.9 hPa South 11.1 km/h 27.0 km/h 98% 6.3 mm 0 W/m2
00:26 11.1 °C 10.8 °C 1003.6 hPa South 19.5 km/h 21.9 km/h 98% 6.3 mm 0 W/m2
00:31 11.0 °C 10.7 °C 1003.6 hPa South 18.3 km/h 33.1 km/h 98% 6.3 mm 0 W/m2
00:36 11.2 °C 10.9 °C 1003.9 hPa SSE 14.8 km/h 33.1 km/h 98% 6.6 mm 0 W/m2
00:41 11.1 °C 10.7 °C 1003.6 hPa South 15.8 km/h 30.6 km/h 97% 6.6 mm 0 W/m2
00:46 11.3 °C 10.8 °C 1003.6 hPa South 14.8 km/h 30.6 km/h 97% 6.9 mm 0 W/m2
00:51 11.2 °C 10.7 °C 1003.6 hPa South 15.8 km/h 28.0 km/h 97% 6.9 mm 0 W/m2
00:56 11.3 °C 10.8 °C 1003.6 hPa South 18.3 km/h 30.6 km/h 97% 6.3 mm 0 W/m2
01:01 11.2 °C 10.7 °C 1003.9 hPa South 17.2 km/h 34.3 km/h 97% 5.3 mm 0 W/m2
01:06 11.2 °C 10.7 °C 1003.6 hPa South 14.8 km/h 34.3 km/h 97% 4.8 mm 0 W/m2
01:11 11.1 °C 10.7 °C 1003.9 hPa South 13.4 km/h 34.3 km/h 97% 4.6 mm 0 W/m2
01:16 11.2 °C 10.7 °C 1003.6 hPa South 12.2 km/h 34.3 km/h 97% 4.8 mm 0 W/m2
01:21 11.2 °C 10.7 °C 1003.6 hPa SSE 25.6 km/h 35.6 km/h 97% 5.1 mm 0 W/m2
01:26 11.1 °C 10.7 °C 1003.6 hPa South 14.8 km/h 35.6 km/h 97% 5.1 mm 0 W/m2
01:31 11.1 °C 10.7 °C 1003.6 hPa South 14.8 km/h 35.6 km/h 97% 5.1 mm 0 W/m2
01:36 11.0 °C 10.6 °C 1003.6 hPa South 20.9 km/h 31.7 km/h 97% 4.8 mm 0 W/m2
01:41 11.0 °C 10.6 °C 1003.6 hPa South 17.2 km/h 37.8 km/h 97% 4.8 mm 0 W/m2
01:46 11.1 °C 10.5 °C 1003.9 hPa South 23.3 km/h 37.8 km/h 96% 4.8 mm 0 W/m2
01:51 11.1 °C 10.5 °C 1003.6 hPa South 28.0 km/h 42.8 km/h 96% 4.8 mm 0 W/m2
01:56 11.1 °C 10.7 °C 1003.6 hPa South 21.9 km/h 42.8 km/h 97% 5.1 mm 0 W/m2
02:01 11.0 °C 10.6 °C 1003.9 hPa South 29.4 km/h 43.9 km/h 97% 5.1 mm 0 W/m2
02:06 10.9 °C 10.6 °C 1003.6 hPa South 18.3 km/h 43.9 km/h 98% 4.8 mm 0 W/m2
02:11 10.9 °C 10.6 °C 1003.6 hPa South 18.3 km/h 43.9 km/h 98% 4.3 mm 0 W/m2
02:16 10.9 °C 10.8 °C 1003.6 hPa SSW 24.5 km/h 42.8 km/h 99% 4.6 mm 0 W/m2
02:21 10.9 °C 10.8 °C 1003.6 hPa South 15.8 km/h 42.8 km/h 99% 4.3 mm 0 W/m2
02:26 10.9 °C 10.8 °C 1003.6 hPa South 27.0 km/h 42.8 km/h 99% 4.3 mm 0 W/m2
02:31 10.9 °C 10.8 °C 1003.6 hPa South 14.8 km/h 35.6 km/h 99% 4.3 mm 0 W/m2
02:36 10.9 °C 10.8 °C 1003.6 hPa South 21.9 km/h 40.4 km/h 99% 4.8 mm 0 W/m2
02:41 10.9 °C 10.8 °C 1003.3 hPa South 19.5 km/h 40.4 km/h 99% 4.8 mm 0 W/m2
02:46 10.9 °C 10.8 °C 1003.6 hPa SSE 29.4 km/h 40.4 km/h 99% 4.6 mm 0 W/m2
02:51 10.9 °C 10.8 °C 1003.3 hPa SSE 23.3 km/h 40.4 km/h 99% 4.6 mm 0 W/m2
02:56 10.9 °C 10.8 °C 1003.3 hPa South 23.3 km/h 40.4 km/h 99% 4.3 mm 0 W/m2
03:01 10.8 °C 10.5 °C 1003.3 hPa South 25.6 km/h 39.3 km/h 98% 4.3 mm 0 W/m2
03:06 10.9 °C 10.4 °C 1003.3 hPa South 21.9 km/h 39.3 km/h 97% 4.3 mm 0 W/m2
03:11 10.9 °C 10.3 °C 1003.6 hPa South 21.9 km/h 39.3 km/h 96% 4.3 mm 0 W/m2
03:16 10.9 °C 10.1 °C 1003.3 hPa SSE 25.6 km/h 36.7 km/h 95% 3.8 mm 0 W/m2
03:21 10.9 °C 10.3 °C 1003.3 hPa South 15.8 km/h 36.7 km/h 96% 3.8 mm 0 W/m2
03:26 10.9 °C 10.3 °C 1003.3 hPa South 21.9 km/h 35.6 km/h 96% 4.3 mm 0 W/m2
03:31 10.9 °C 10.3 °C 1003.3 hPa South 19.5 km/h 39.3 km/h 96% 4.3 mm 0 W/m2
03:36 10.9 °C 10.3 °C 1003.3 hPa South 19.5 km/h 39.3 km/h 96% 3.6 mm 0 W/m2
03:41 11.0 °C 10.2 °C 1003.6 hPa South 29.4 km/h 36.7 km/h 95% 3.6 mm 0 W/m2
03:46 10.9 °C 10.1 °C 1003.3 hPa South 28.0 km/h 45.4 km/h 95% 3.6 mm 0 W/m2
03:51 10.9 °C 10.1 °C 1003.6 hPa South 25.6 km/h 45.4 km/h 95% 3.6 mm 0 W/m2
03:56 10.9 °C 10.1 °C 1003.6 hPa South 19.5 km/h 42.8 km/h 95% 3.3 mm 0 W/m2
04:01 10.9 °C 10.1 °C 1003.3 hPa South 25.6 km/h 42.8 km/h 95% 3.3 mm 0 W/m2
04:06 10.9 °C 10.1 °C 1003.6 hPa South 18.3 km/h 35.6 km/h 95% 3.0 mm 0 W/m2
04:11 11.0 °C 10.1 °C 1003.3 hPa SSE 23.3 km/h 41.7 km/h 94% 3.3 mm 0 W/m2
04:16 11.0 °C 10.1 °C 1003.6 hPa South 24.5 km/h 41.7 km/h 94% 3.0 mm 0 W/m2
04:21 11.0 °C 10.1 °C 1003.6 hPa South 23.3 km/h 40.4 km/h 94% 2.8 mm 0 W/m2
04:26 10.9 °C 10.1 °C 1003.6 hPa South 25.6 km/h 40.4 km/h 95% 2.3 mm 0 W/m2
04:31 10.8 °C 10.2 °C 1003.6 hPa South 20.9 km/h 40.4 km/h 96% 2.3 mm 0 W/m2
04:36 10.8 °C 10.2 °C 1003.6 hPa South 15.8 km/h 40.4 km/h 96% 2.3 mm 0 W/m2
04:41 10.8 °C 10.2 °C 1003.6 hPa South 19.5 km/h 37.8 km/h 96% 2.3 mm 0 W/m2
04:46 10.8 °C 10.2 °C 1003.6 hPa South 23.3 km/h 41.7 km/h 96% 2.3 mm 0 W/m2
04:51 10.9 °C 10.3 °C 1003.6 hPa South 15.8 km/h 41.7 km/h 96% 2.0 mm 0 W/m2
04:56 10.9 °C 10.3 °C 1003.6 hPa South 25.6 km/h 36.7 km/h 96% 2.0 mm 0 W/m2
05:01 10.8 °C 10.2 °C 1003.6 hPa South 35.6 km/h 45.4 km/h 96% 2.3 mm 0 W/m2
05:06 10.7 °C 10.1 °C 1003.9 hPa South 27.0 km/h 45.4 km/h 96% 2.0 mm 0 W/m2
05:11 10.8 °C 10.2 °C 1003.9 hPa South 23.3 km/h 45.4 km/h 96% 2.0 mm 0 W/m2
05:16 10.9 °C 10.3 °C 1003.9 hPa South 21.9 km/h 41.7 km/h 96% 2.0 mm 0 W/m2
05:21 10.8 °C 10.2 °C 1003.6 hPa South 17.2 km/h 41.7 km/h 96% 2.3 mm 0 W/m2
05:26 10.8 °C 10.2 °C 1003.9 hPa South 28.0 km/h 41.7 km/h 96% 2.0 mm 0 W/m2
05:36 10.8 °C 10.2 °C 1003.9 hPa SSW 25.6 km/h 40.4 km/h 96% 2.0 mm 0 W/m2
05:41 10.7 °C 10.1 °C 1003.9 hPa SSW 21.9 km/h 40.4 km/h 96% 1.8 mm 0 W/m2
05:46 10.7 °C 10.1 °C 1003.9 hPa SSW 21.9 km/h 35.6 km/h 96% 1.8 mm 0 W/m2
05:51 10.6 °C 10.0 °C 1004.3 hPa South 29.4 km/h 35.6 km/h 96% 1.8 mm 0 W/m2
05:56 10.6 °C 10.0 °C 1003.9 hPa South 19.5 km/h 36.7 km/h 96% 1.8 mm 0 W/m2
06:01 10.7 °C 10.1 °C 1003.9 hPa South 18.3 km/h 36.7 km/h 96% 1.5 mm 0 W/m2
06:06 10.8 °C 10.2 °C 1004.3 hPa South 21.9 km/h 40.4 km/h 96% 1.5 mm 0 W/m2
06:11 10.7 °C 10.1 °C 1004.3 hPa South 25.6 km/h 41.7 km/h 96% 1.8 mm 0 W/m2
06:16 10.7 °C 10.1 °C 1004.3 hPa South 24.5 km/h 41.7 km/h 96% 1.5 mm 0 W/m2
06:21 10.8 °C 10.1 °C 1004.3 hPa South 20.9 km/h 40.4 km/h 95% 1.8 mm 0 W/m2
06:26 10.9 °C 10.1 °C 1004.3 hPa South 21.9 km/h 37.8 km/h 95% 1.8 mm 0 W/m2
06:31 10.8 °C 10.1 °C 1004.3 hPa SSW 17.2 km/h 36.7 km/h 95% 1.8 mm 0 W/m2
06:36 10.7 °C 9.8 °C 1004.6 hPa SSW 23.3 km/h 40.4 km/h 94% 1.8 mm 0 W/m2
06:41 10.7 °C 9.8 °C 1004.6 hPa South 25.6 km/h 43.9 km/h 94% 1.8 mm 0 W/m2
06:46 10.7 °C 9.8 °C 1004.6 hPa South 19.5 km/h 43.9 km/h 94% 1.8 mm 0 W/m2
06:51 10.8 °C 9.9 °C 1004.6 hPa SSW 24.5 km/h 34.3 km/h 94% 1.8 mm 0 W/m2
06:56 10.6 °C 9.7 °C 1004.6 hPa SSW 21.9 km/h 40.4 km/h 94% 1.8 mm 0 W/m2
07:01 10.7 °C 9.9 °C 1004.6 hPa SSW 21.9 km/h 40.4 km/h 95% 1.8 mm 0 W/m2
07:06 10.8 °C 10.2 °C 1004.6 hPa SSW 20.9 km/h 36.7 km/h 96% 1.8 mm 0 W/m2
07:11 10.7 °C 10.1 °C 1004.6 hPa SSW 15.8 km/h 37.8 km/h 96% 1.8 mm 2 W/m2
07:16 10.7 °C 9.9 °C 1004.6 hPa SSW 21.9 km/h 37.8 km/h 95% 1.8 mm 0 W/m2
07:21 10.5 °C 9.7 °C 1005.0 hPa SSW 19.5 km/h 40.4 km/h 95% 1.3 mm 1 W/m2
07:26 10.5 °C 9.7 °C 1005.0 hPa SSW 28.0 km/h 40.4 km/h 95% 1.5 mm 5 W/m2
07:31 10.6 °C 10.0 °C 1005.0 hPa South 24.5 km/h 39.3 km/h 96% 1.5 mm 3 W/m2
07:36 10.6 °C 10.0 °C 1005.0 hPa SSW 15.8 km/h 37.8 km/h 96% 1.3 mm 5 W/m2
07:41 10.6 °C 10.0 °C 1005.0 hPa SSW 25.6 km/h 34.3 km/h 96% 1.5 mm 7 W/m2
07:46 10.6 °C 10.0 °C 1005.3 hPa SSW 21.9 km/h 41.7 km/h 96% 1.3 mm 13 W/m2
07:51 10.4 °C 9.8 °C 1005.3 hPa SSW 20.9 km/h 41.7 km/h 96% 1.3 mm 12 W/m2
07:56 10.5 °C 9.7 °C 1005.3 hPa SSW 15.8 km/h 37.8 km/h 95% 1.5 mm 11 W/m2
08:01 10.5 °C 9.7 °C 1005.3 hPa SSW 18.3 km/h 33.1 km/h 95% 1.5 mm 17 W/m2
08:06 10.5 °C 9.7 °C 1005.3 hPa SSW 18.3 km/h 33.1 km/h 95% 1.5 mm 8 W/m2
08:11 10.7 °C 9.9 °C 1005.3 hPa SSW 13.4 km/h 36.7 km/h 95% 1.3 mm 8 W/m2
08:16 10.6 °C 9.8 °C 1005.3 hPa South 20.9 km/h 40.4 km/h 95% 1.8 mm 19 W/m2
08:21 10.5 °C 9.7 °C 1005.3 hPa SSW 18.3 km/h 40.4 km/h 95% 1.8 mm 28 W/m2
08:26 10.7 °C 9.9 °C 1005.3 hPa SSW 21.9 km/h 35.6 km/h 95% 1.8 mm 35 W/m2
08:31 10.6 °C 9.8 °C 1005.3 hPa SSW 27.0 km/h 43.9 km/h 95% 2.0 mm 56 W/m2
08:36 10.7 °C 9.8 °C 1005.3 hPa South 21.9 km/h 43.9 km/h 94% 2.0 mm 73 W/m2
08:41 10.8 °C 9.9 °C 1005.3 hPa South 24.5 km/h 40.4 km/h 94% 1.8 mm 83 W/m2
08:46 10.8 °C 9.9 °C 1005.3 hPa SSW 14.8 km/h 40.4 km/h 94% 2.0 mm 65 W/m2
08:51 10.8 °C 9.9 °C 1005.3 hPa SSW 19.5 km/h 39.3 km/h 94% 2.3 mm 72 W/m2
08:56 10.9 °C 10.1 °C 1005.6 hPa SW 21.9 km/h 36.7 km/h 95% 2.0 mm 70 W/m2
09:01 10.9 °C 10.1 °C 1005.6 hPa SW 17.2 km/h 36.7 km/h 95% 1.8 mm 65 W/m2
09:06 10.8 °C 10.1 °C 1005.6 hPa SSW 19.5 km/h 39.3 km/h 95% 2.0 mm 84 W/m2
09:11 10.8 °C 10.1 °C 1005.6 hPa SSW 19.5 km/h 39.3 km/h 95% 2.3 mm 94 W/m2
09:16 10.9 °C 10.0 °C 1005.6 hPa SSW 20.9 km/h 36.7 km/h 94% 1.8 mm 91 W/m2
09:21 10.9 °C 10.0 °C 1005.6 hPa SSW 20.9 km/h 36.7 km/h 94% 1.8 mm 85 W/m2
09:26 10.9 °C 10.0 °C 1005.6 hPa SSW 15.8 km/h 34.3 km/h 94% 1.5 mm 50 W/m2
09:31 10.9 °C 10.0 °C 1005.6 hPa SSW 15.8 km/h 36.7 km/h 94% 1.5 mm 83 W/m2
09:37 10.7 °C 9.9 °C 1005.6 hPa SSW 23.3 km/h 36.7 km/h 95% 1.5 mm 89 W/m2
09:42 10.8 °C 10.2 °C 1005.6 hPa SW 24.5 km/h 35.6 km/h 96% 1.5 mm 92 W/m2
09:47 10.9 °C 10.3 °C 1005.6 hPa SW 27.0 km/h 39.3 km/h 96% 1.3 mm 109 W/m2
09:52 10.9 °C 10.1 °C 1005.6 hPa SW 15.8 km/h 39.3 km/h 95% 1.0 mm 103 W/m2
09:57 10.9 °C 10.1 °C 1005.6 hPa SSW 23.3 km/h 35.6 km/h 95% 1.0 mm 99 W/m2
10:02 10.9 °C 10.1 °C 1005.6 hPa SSW 18.3 km/h 35.6 km/h 95% 1.3 mm 75 W/m2
10:07 10.8 °C 9.9 °C 1005.6 hPa SSW 20.9 km/h 34.3 km/h 94% 1.0 mm 105 W/m2
10:12 10.9 °C 9.8 °C 1006.0 hPa South 15.8 km/h 33.1 km/h 93% 0.5 mm 69 W/m2
10:17 10.9 °C 10.0 °C 1005.6 hPa South 18.3 km/h 34.3 km/h 94% 0.5 mm 79 W/m2
10:22 10.7 °C 9.8 °C 1005.6 hPa South 15.8 km/h 34.3 km/h 94% 0.5 mm 111 W/m2
10:27 10.9 °C 10.1 °C 1005.6 hPa South 12.2 km/h 33.1 km/h 95% 1.0 mm 68 W/m2
10:32 10.8 °C 10.2 °C 1005.6 hPa SSW 17.2 km/h 31.7 km/h 96% 1.0 mm 102 W/m2
10:37 10.9 °C 10.3 °C 1005.6 hPa SSW 20.9 km/h 31.7 km/h 96% 1.0 mm 126 W/m2
10:42 10.9 °C 10.3 °C 1005.6 hPa SSW 14.8 km/h 30.6 km/h 96% 1.0 mm 112 W/m2
10:47 10.9 °C 10.3 °C 1005.6 hPa SSW 20.9 km/h 37.8 km/h 96% 1.3 mm 74 W/m2
10:52 10.8 °C 10.1 °C 1005.6 hPa SSW 21.9 km/h 39.3 km/h 95% 1.5 mm 108 W/m2
10:57 10.9 °C 10.1 °C 1005.6 hPa SSW 13.4 km/h 39.3 km/h 95% 1.5 mm 94 W/m2
11:02 10.9 °C 10.3 °C 1005.6 hPa SSW 17.2 km/h 34.3 km/h 96% 1.3 mm 143 W/m2
11:07 11.0 °C 10.2 °C 1005.6 hPa SSW 24.5 km/h 34.3 km/h 95% 1.5 mm 150 W/m2
11:12 11.1 °C 10.3 °C 1005.6 hPa SSW 15.8 km/h 30.6 km/h 95% 1.5 mm 125 W/m2
11:17 10.9 °C 10.3 °C 1005.6 hPa SSW 19.5 km/h 30.6 km/h 96% 1.5 mm 121 W/m2
11:22 10.9 °C 10.3 °C 1005.6 hPa SSW 21.9 km/h 35.6 km/h 96% 1.5 mm 88 W/m2
11:27 10.8 °C 10.1 °C 1005.6 hPa SSW 14.8 km/h 35.6 km/h 95% 1.3 mm 90 W/m2
11:32 10.9 °C 10.1 °C 1005.6 hPa SW 17.2 km/h 30.6 km/h 95% 1.3 mm 73 W/m2
11:37 10.9 °C 10.1 °C 1005.6 hPa SSW 15.8 km/h 37.8 km/h 95% 1.3 mm 69 W/m2
11:42 10.8 °C 10.1 °C 1005.6 hPa SSW 19.5 km/h 37.8 km/h 95% 1.5 mm 81 W/m2
11:47 10.8 °C 10.2 °C 1005.6 hPa SSW 19.5 km/h 29.4 km/h 96% 1.5 mm 79 W/m2
11:52 10.7 °C 10.2 °C 1005.3 hPa SSW 15.8 km/h 34.3 km/h 97% 1.8 mm 92 W/m2
11:57 10.7 °C 10.2 °C 1005.3 hPa SSW 21.9 km/h 34.3 km/h 97% 1.8 mm 92 W/m2
12:02 10.8 °C 10.3 °C 1005.6 hPa SSW 21.9 km/h 39.3 km/h 97% 2.0 mm 92 W/m2
12:07 10.9 °C 10.4 °C 1005.6 hPa SSW 17.2 km/h 39.3 km/h 97% 1.8 mm 59 W/m2
12:12 10.9 °C 10.4 °C 1005.6 hPa SW 20.9 km/h 39.3 km/h 97% 2.0 mm 67 W/m2
12:17 10.8 °C 10.3 °C 1005.6 hPa SW 13.4 km/h 36.7 km/h 97% 2.0 mm 72 W/m2
12:22 10.8 °C 10.3 °C 1005.3 hPa SW 17.2 km/h 36.7 km/h 97% 2.0 mm 69 W/m2
12:27 10.9 °C 10.4 °C 1005.6 hPa SW 17.2 km/h 31.7 km/h 97% 2.0 mm 75 W/m2
12:32 10.8 °C 10.2 °C 1005.3 hPa SW 14.8 km/h 31.7 km/h 96% 2.0 mm 37 W/m2
12:37 10.7 °C 10.1 °C 1005.3 hPa SW 21.9 km/h 30.6 km/h 96% 2.3 mm 60 W/m2
12:42 10.7 °C 10.2 °C 1005.3 hPa SSW 15.8 km/h 31.7 km/h 97% 2.0 mm 71 W/m2
12:47 10.8 °C 10.3 °C 1005.3 hPa SSW 12.2 km/h 35.6 km/h 97% 1.8 mm 51 W/m2
12:52 10.9 °C 10.4 °C 1005.3 hPa SW 13.4 km/h 35.6 km/h 97% 1.3 mm 73 W/m2
12:58 10.9 °C 10.3 °C 1005.0 hPa SSW 24.5 km/h 31.7 km/h 96% 1.3 mm 66 W/m2
13:03 10.9 °C 10.3 °C 1005.0 hPa SSW 15.8 km/h 31.7 km/h 96% 1.0 mm 78 W/m2
13:08 10.9 °C 10.3 °C 1005.0 hPa SW 23.3 km/h 31.7 km/h 96% 1.0 mm 57 W/m2
13:13 10.9 °C 10.3 °C 1005.0 hPa SW 21.9 km/h 35.6 km/h 96% 1.0 mm 86 W/m2
13:18 10.7 °C 10.1 °C 1005.0 hPa SSW 19.5 km/h 36.7 km/h 96% 1.3 mm 77 W/m2
13:23 10.6 °C 10.0 °C 1004.6 hPa SW 28.0 km/h 37.8 km/h 96% 1.3 mm 62 W/m2
13:28 10.7 °C 10.1 °C 1005.0 hPa SW 28.0 km/h 40.4 km/h 96% 1.0 mm 49 W/m2
13:33 10.5 °C 9.7 °C 1005.0 hPa SSW 24.5 km/h 40.4 km/h 95% 1.3 mm 59 W/m2
13:38 10.6 °C 10.0 °C 1005.0 hPa SSW 14.8 km/h 35.6 km/h 96% 1.3 mm 62 W/m2
13:43 10.5 °C 9.9 °C 1005.0 hPa SSW 17.2 km/h 35.6 km/h 96% 1.3 mm 79 W/m2
13:48 10.5 °C 9.9 °C 1005.0 hPa SSW 20.9 km/h 35.6 km/h 96% 1.3 mm 90 W/m2
13:53 10.5 °C 9.9 °C 1005.3 hPa SSW 24.5 km/h 35.6 km/h 96% 1.3 mm 70 W/m2
13:58 10.6 °C 10.0 °C 1005.0 hPa South 28.0 km/h 42.8 km/h 96% 1.5 mm 77 W/m2
14:03 10.6 °C 10.0 °C 1005.0 hPa South 23.3 km/h 42.8 km/h 96% 1.5 mm 90 W/m2
14:08 10.6 °C 10.0 °C 1005.0 hPa SSW 14.8 km/h 42.8 km/h 96% 1.3 mm 95 W/m2
14:13 10.6 °C 9.8 °C 1005.0 hPa SSW 17.2 km/h 36.7 km/h 95% 1.3 mm 96 W/m2
14:18 10.5 °C 9.7 °C 1005.0 hPa South 25.6 km/h 36.7 km/h 95% 1.0 mm 97 W/m2
14:23 10.5 °C 9.7 °C 1005.0 hPa SSW 18.3 km/h 36.7 km/h 95% 1.0 mm 105 W/m2
14:28 10.7 °C 9.8 °C 1005.0 hPa SSW 13.4 km/h 36.7 km/h 94% 1.3 mm 54 W/m2
14:33 10.6 °C 9.7 °C 1005.0 hPa SSW 17.2 km/h 33.1 km/h 94% 1.0 mm 60 W/m2
14:38 10.6 °C 9.8 °C 1005.0 hPa SSW 14.8 km/h 30.6 km/h 95% 0.5 mm 95 W/m2
14:43 10.9 °C 10.0 °C 1005.0 hPa SW 17.2 km/h 30.6 km/h 94% 0.5 mm 78 W/m2
14:48 10.9 °C 10.0 °C 1005.0 hPa SSW 21.9 km/h 28.0 km/h 94% 0.5 mm 60 W/m2
14:53 10.9 °C 9.8 °C 1005.0 hPa SSW 24.5 km/h 36.7 km/h 93% 0.5 mm 61 W/m2
14:58 10.9 °C 9.7 °C 1005.0 hPa SSW 19.5 km/h 37.8 km/h 92% 0.5 mm 46 W/m2
15:03 10.8 °C 9.4 °C 1005.0 hPa SSW 25.6 km/h 37.8 km/h 91% 0.5 mm 71 W/m2
15:08 10.9 °C 9.5 °C 1005.0 hPa SSW 23.3 km/h 40.4 km/h 91% 0.5 mm 50 W/m2
15:19 10.9 °C 9.5 °C 1005.0 hPa SW 18.3 km/h 34.3 km/h 91% 0.5 mm 46 W/m2
15:24 10.9 °C 9.5 °C 1005.3 hPa SW 19.5 km/h 34.3 km/h 91% 0.5 mm 45 W/m2
15:29 10.9 °C 9.7 °C 1005.0 hPa SW 12.2 km/h 31.7 km/h 92% 0.5 mm 45 W/m2
15:32 10.9 °C 9.8 °C 1005.0 hPa SW 12.2 km/h 31.7 km/h 93% 0.5 mm 41 W/m2
15:37 10.8 °C 9.7 °C 1005.3 hPa SW 18.3 km/h 28.0 km/h 93% 0.5 mm 48 W/m2
15:42 10.8 °C 9.6 °C 1005.3 hPa SW 14.8 km/h 37.8 km/h 92% 0.5 mm 43 W/m2
15:46 10.8 °C 9.7 °C 1005.3 hPa WSW 18.3 km/h 37.8 km/h 93% 0.5 mm 45 W/m2
15:50 10.8 °C 9.7 °C 1005.3 hPa SW 20.9 km/h 27.0 km/h 93% 0.5 mm 43 W/m2
15:55 10.8 °C 9.7 °C 1005.3 hPa SSW 15.8 km/h 28.0 km/h 93% 0.5 mm 41 W/m2
16:00 10.8 °C 9.7 °C 1005.3 hPa SSW 17.2 km/h 28.0 km/h 93% 0.3 mm 38 W/m2
16:05 10.8 °C 9.7 °C 1005.3 hPa SSW 18.3 km/h 34.3 km/h 93% 0.5 mm 41 W/m2
16:10 10.9 °C 9.7 °C 1005.3 hPa SSW 13.4 km/h 34.3 km/h 92% 0.5 mm 44 W/m2
16:13 10.9 °C 9.7 °C 1005.3 hPa SSW 11.1 km/h 34.3 km/h 92% 0.5 mm 45 W/m2
16:18 10.9 °C 9.7 °C 1005.3 hPa SW 17.2 km/h 25.6 km/h 92% 0.5 mm 34 W/m2
16:23 10.9 °C 9.5 °C 1005.3 hPa SW 13.4 km/h 28.0 km/h 91% 0.5 mm 30 W/m2
16:28 10.9 °C 9.2 °C 1005.3 hPa SW 15.8 km/h 28.0 km/h 89% 0.3 mm 33 W/m2
16:33 10.9 °C 9.3 °C 1005.3 hPa SSW 12.2 km/h 28.0 km/h 90% 0.3 mm 19 W/m2
16:38 10.9 °C 9.3 °C 1005.6 hPa SSW 11.1 km/h 37.8 km/h 90% 0.3 mm 19 W/m2
16:43 10.8 °C 9.4 °C 1005.3 hPa SSW 14.8 km/h 37.8 km/h 91% 0.3 mm 24 W/m2
16:48 10.9 °C 9.3 °C 1005.6 hPa SW 24.5 km/h 31.7 km/h 90% 0.3 mm 23 W/m2
16:53 11.0 °C 9.1 °C 1005.6 hPa SW 18.3 km/h 33.1 km/h 88% 0.3 mm 18 W/m2
16:58 11.0 °C 9.1 °C 1005.6 hPa SSW 17.2 km/h 33.1 km/h 88% 0.3 mm 12 W/m2
17:03 11.0 °C 8.9 °C 1005.6 hPa SSW 15.8 km/h 31.7 km/h 87% 0.3 mm 19 W/m2
17:08 11.0 °C 8.9 °C 1005.6 hPa SW 17.2 km/h 29.4 km/h 87% 0.0 mm 20 W/m2
17:13 11.0 °C 8.9 °C 1005.6 hPa SW 18.3 km/h 29.4 km/h 87% 0.0 mm 10 W/m2
17:18 11.0 °C 8.9 °C 1006.0 hPa SSW 20.9 km/h 37.8 km/h 87% 0.0 mm 8 W/m2
17:23 10.6 °C 8.9 °C 1006.0 hPa SSW 18.3 km/h 37.8 km/h 89% 0.0 mm 5 W/m2
17:28 10.5 °C 8.9 °C 1006.0 hPa SSW 18.3 km/h 35.6 km/h 90% 0.0 mm 5 W/m2
17:33 10.9 °C 9.5 °C 1006.0 hPa SW 13.4 km/h 27.0 km/h 91% 0.0 mm 4 W/m2
17:38 10.9 °C 9.3 °C 1006.0 hPa SW 17.2 km/h 29.4 km/h 90% 0.0 mm 4 W/m2
17:43 11.0 °C 9.1 °C 1006.0 hPa SW 14.8 km/h 29.4 km/h 88% 0.0 mm 2 W/m2
17:48 11.0 °C 8.9 °C 1006.0 hPa SSW 20.9 km/h 35.6 km/h 87% 0.0 mm 0 W/m2
17:53 11.0 °C 8.8 °C 1006.0 hPa SSW 12.2 km/h 35.6 km/h 86% 0.0 mm 0 W/m2
17:58 11.1 °C 9.0 °C 1006.3 hPa SW 7.2 km/h 24.5 km/h 87% 0.0 mm 0 W/m2
18:03 11.1 °C 9.0 °C 1006.3 hPa SW 15.8 km/h 25.6 km/h 87% 0.0 mm 0 W/m2
18:08 11.1 °C 9.2 °C 1006.3 hPa SW 6.1 km/h 25.6 km/h 88% 0.0 mm 0 W/m2
18:24 11.0 °C 9.3 °C 1006.3 hPa SW 20.9 km/h 28.0 km/h 89% 0.0 mm 0 W/m2
18:29 11.0 °C 9.3 °C 1006.7 hPa SW 11.1 km/h 27.0 km/h 89% 0.0 mm 0 W/m2
18:34 11.0 °C 9.3 °C 1006.7 hPa SW 15.8 km/h 25.6 km/h 89% 0.0 mm 0 W/m2
18:39 11.0 °C 9.3 °C 1006.7 hPa SW 13.4 km/h 25.6 km/h 89% 0.0 mm 0 W/m2
18:44 11.0 °C 9.3 °C 1006.7 hPa SW 14.8 km/h 30.6 km/h 89% 0.0 mm 0 W/m2
18:49 10.8 °C 9.4 °C 1007.0 hPa SW 19.5 km/h 30.6 km/h 91% 0.3 mm 0 W/m2
18:54 10.6 °C 9.5 °C 1006.7 hPa SW 15.8 km/h 28.0 km/h 93% 0.3 mm 0 W/m2
18:59 10.7 °C 9.8 °C 1006.7 hPa SW 11.1 km/h 25.6 km/h 94% 0.3 mm 0 W/m2
19:04 10.8 °C 9.7 °C 1007.0 hPa SW 18.3 km/h 29.4 km/h 93% 0.3 mm 0 W/m2
19:09 10.9 °C 9.8 °C 1006.7 hPa WSW 13.4 km/h 29.4 km/h 93% 0.3 mm 0 W/m2
19:14 10.9 °C 9.8 °C 1007.0 hPa SW 11.1 km/h 28.0 km/h 93% 0.3 mm 0 W/m2
19:19 10.8 °C 9.6 °C 1007.0 hPa SSW 14.8 km/h 28.0 km/h 92% 0.3 mm 0 W/m2
19:24 10.9 °C 9.3 °C 1007.0 hPa SSW 14.8 km/h 29.4 km/h 90% 0.3 mm 0 W/m2
19:29 11.0 °C 9.3 °C 1007.0 hPa SSW 18.3 km/h 29.4 km/h 89% 0.3 mm 0 W/m2
19:34 11.0 °C 9.3 °C 1007.0 hPa SW 17.2 km/h 34.3 km/h 89% 0.3 mm 0 W/m2
19:39 11.0 °C 9.4 °C 1007.0 hPa SW 12.2 km/h 34.3 km/h 90% 0.3 mm 0 W/m2
19:44 10.9 °C 9.7 °C 1007.3 hPa SSW 21.9 km/h 30.6 km/h 92% 0.3 mm 0 W/m2
19:49 10.9 °C 9.7 °C 1007.3 hPa SSW 13.4 km/h 29.4 km/h 92% 0.0 mm 0 W/m2
19:54 10.9 °C 9.7 °C 1007.3 hPa SW 17.2 km/h 35.6 km/h 92% 0.0 mm 0 W/m2
19:59 10.9 °C 9.7 °C 1007.3 hPa SW 19.5 km/h 35.6 km/h 92% 0.0 mm 0 W/m2
20:04 10.8 °C 9.7 °C 1007.3 hPa SSW 19.5 km/h 28.0 km/h 93% 0.0 mm 0 W/m2
20:09 10.8 °C 9.6 °C 1007.3 hPa SW 18.3 km/h 30.6 km/h 92% 0.0 mm 0 W/m2
20:14 10.8 °C 9.6 °C 1007.3 hPa SW 17.2 km/h 30.6 km/h 92% 0.0 mm 0 W/m2
20:19 10.8 °C 9.6 °C 1007.3 hPa SW 14.8 km/h 35.6 km/h 92% 0.0 mm 0 W/m2
20:24 10.8 °C 9.6 °C 1007.3 hPa SW 13.4 km/h 35.6 km/h 92% 0.0 mm 0 W/m2
20:25 10.8 °C 9.6 °C 1007.3 hPa SW 17.2 km/h 35.6 km/h 92% 0.0 mm 0 W/m2
20:30 10.9 °C 9.8 °C 1007.7 hPa SW 13.4 km/h 29.4 km/h 93% 0.0 mm 0 W/m2
20:35 10.8 °C 9.7 °C 1007.7 hPa WSW 11.1 km/h 29.4 km/h 93% 0.0 mm 0 W/m2
20:40 10.8 °C 9.9 °C 1007.7 hPa SW 13.4 km/h 28.0 km/h 94% 0.0 mm 0 W/m2
20:45 10.9 °C 10.0 °C 1007.3 hPa SW 15.8 km/h 28.0 km/h 94% 0.0 mm 0 W/m2
20:50 10.9 °C 9.8 °C 1007.7 hPa WSW 19.5 km/h 33.1 km/h 93% 0.0 mm 0 W/m2
20:55 10.8 °C 9.7 °C 1007.7 hPa WSW 20.9 km/h 33.1 km/h 93% 0.0 mm 0 W/m2
21:00 10.8 °C 9.7 °C 1007.7 hPa SSW 12.2 km/h 33.1 km/h 93% 0.0 mm 0 W/m2
21:05 10.8 °C 9.7 °C 1008.0 hPa SSW 21.9 km/h 33.1 km/h 93% 0.0 mm 0 W/m2
21:10 10.9 °C 9.7 °C 1007.7 hPa SW 14.8 km/h 33.1 km/h 92% 0.0 mm 0 W/m2
21:15 10.8 °C 9.7 °C 1007.7 hPa SW 15.8 km/h 30.6 km/h 93% 0.0 mm 0 W/m2
21:20 10.8 °C 9.7 °C 1008.0 hPa SW 18.3 km/h 28.0 km/h 93% 0.0 mm 0 W/m2
21:25 10.6 °C 9.7 °C 1008.0 hPa SW 18.3 km/h 31.7 km/h 94% 0.0 mm 0 W/m2
21:30 10.5 °C 9.6 °C 1008.4 hPa SW 20.9 km/h 31.7 km/h 94% 0.0 mm 0 W/m2
21:36 10.5 °C 9.6 °C 1008.0 hPa WSW 13.4 km/h 30.6 km/h 94% 0.0 mm 0 W/m2
21:41 10.6 °C 9.5 °C 1008.4 hPa WSW 14.8 km/h 30.6 km/h 93% 0.0 mm 0 W/m2
21:46 10.6 °C 9.5 °C 1008.0 hPa SW 14.8 km/h 29.4 km/h 93% 0.0 mm 0 W/m2
21:51 10.6 °C 9.5 °C 1008.4 hPa SW 13.4 km/h 25.6 km/h 93% 0.0 mm 0 W/m2
21:56 10.6 °C 9.5 °C 1008.4 hPa SW 13.4 km/h 25.6 km/h 93% 0.0 mm 0 W/m2
22:01 10.6 °C 9.5 °C 1008.4 hPa SSW 23.3 km/h 30.6 km/h 93% 0.0 mm 0 W/m2
22:06 10.5 °C 9.4 °C 1008.4 hPa SW 12.2 km/h 30.6 km/h 93% 0.0 mm 0 W/m2
22:11 10.3 °C 9.2 °C 1008.4 hPa SW 14.8 km/h 30.6 km/h 93% 0.0 mm 0 W/m2
22:16 10.4 °C 9.3 °C 1008.4 hPa WSW 15.8 km/h 29.4 km/h 93% 0.0 mm 0 W/m2
22:21 10.4 °C 9.3 °C 1008.4 hPa WSW 19.5 km/h 24.5 km/h 93% 0.0 mm 0 W/m2
22:26 10.6 °C 9.3 °C 1008.4 hPa SW 23.3 km/h 31.7 km/h 92% 0.0 mm 0 W/m2
22:31 10.6 °C 9.3 °C 1008.4 hPa WSW 19.5 km/h 31.7 km/h 92% 0.0 mm 0 W/m2
22:36 10.5 °C 9.1 °C 1008.4 hPa SW 20.9 km/h 33.1 km/h 91% 0.0 mm 0 W/m2
22:41 10.6 °C 9.2 °C 1008.4 hPa SW 14.8 km/h 33.1 km/h 91% 0.0 mm 0 W/m2
22:46 10.6 °C 9.2 °C 1008.4 hPa SW 12.2 km/h 29.4 km/h 91% 0.0 mm 0 W/m2
22:51 10.7 °C 9.3 °C 1008.4 hPa SW 19.5 km/h 29.4 km/h 91% 0.0 mm 0 W/m2
22:56 10.7 °C 8.9 °C 1008.4 hPa SW 20.9 km/h 35.6 km/h 89% 0.0 mm 0 W/m2
23:01 10.7 °C 8.9 °C 1008.4 hPa SW 18.3 km/h 35.6 km/h 89% 0.0 mm 0 W/m2
23:06 10.7 °C 8.9 °C 1008.4 hPa SW 12.2 km/h 28.0 km/h 89% 0.0 mm 0 W/m2
23:11 10.6 °C 9.1 °C 1008.4 hPa SW 12.2 km/h 25.6 km/h 90% 0.0 mm 0 W/m2
23:16 10.6 °C 9.1 °C 1008.4 hPa SW 15.8 km/h 23.3 km/h 90% 0.0 mm 0 W/m2
23:21 10.5 °C 8.9 °C 1008.4 hPa SW 14.8 km/h 25.6 km/h 90% 0.0 mm 0 W/m2
23:26 10.5 °C 8.9 °C 1008.4 hPa SW 15.8 km/h 28.0 km/h 90% 0.0 mm 0 W/m2
23:31 10.5 °C 8.9 °C 1008.4 hPa WSW 12.2 km/h 28.0 km/h 90% 0.0 mm 0 W/m2
23:36 10.6 °C 9.2 °C 1008.4 hPa SW 12.2 km/h 25.6 km/h 91% 0.0 mm 0 W/m2
23:41 10.5 °C 8.9 °C 1008.4 hPa SW 18.3 km/h 29.4 km/h 90% 0.0 mm 0 W/m2
23:46 10.7 °C 8.8 °C 1008.4 hPa SW 15.8 km/h 30.6 km/h 88% 0.0 mm 0 W/m2
23:51 10.6 °C 8.7 °C 1008.4 hPa SW 18.3 km/h 30.6 km/h 88% 0.0 mm 0 W/m2
23:56 10.6 °C 8.7 °C 1008.4 hPa WSW 20.9 km/h 30.6 km/h 88% 0.0 mm 0 W/m2
Northern Hawkes Bay. New Zealand Historic Data
Compliments of Weather Underground - 2 mb